Simultaneous Nadir Overpasses (SNOs) Predictions

Prediction of SNOs between AQUA and GOES-15 Satellite Orbit:

Table of predicted SNOs for the next 14.0 days since TLE Epoch: 7/31/2021
Index Date Time (AQUA) AQUA Lat,Lon GOES-15 Lat,Lon Distance(km) Time Diff (sec)
1 07/31/2021 10:13:12 0.15,-129.42 -0.15,-127.92 170.19 80
2 08/02/2021 10:01:01 -0.49,-126.46 -0.15,-127.97 171.96 80
3 08/02/2021 22:22:24 -0.64,-131.65 0.17,-127.88 428.72 80
4 08/04/2021 22:10:14 0.00,-128.70 0.17,-127.93 87.42 80
5 08/06/2021 21:58:03 0.65,-125.74 0.18,-127.97 253.32 80
6 08/07/2021 10:19:18 0.40,-130.91 -0.19,-128.08 321.04 80
7 08/09/2021 10:07:07 -0.26,-127.96 -0.19,-128.12 19.48 80
8 08/11/2021 09:54:55 -0.86,-124.99 -0.19,-128.16 359.39 80
9 08/11/2021 22:16:19 -0.27,-130.18 0.21,-128.06 241.47 80
10 08/13/2021 22:04:08 0.40,-127.23 0.21,-128.09 98.08 80
